Time,TemperatureF,DewpointF,PressureIn,WindDirection,WindDirectionDegrees,WindSpeedMPH,WindSpeedGustMPH,Humidity,HourlyPrecipIn,Conditions,Clouds,dailyrainin,SolarRadiationWatts/m^2,SoftwareType,DateUTC
2013-03-19 00:00:00,28.0,27.0,-100.00,SE,135,0.0,-999.0,97,-99.99,,,-99.99,0.000000,,2013-03-19 04:00:00,
2013-03-19 00:43:00,28.0,27.0,-100.00,SE,135,0.0,-999.0,97,-99.99,,,-99.99,0.000000,,2013-03-19 04:43:00,
2013-03-19 00:53:00,28.0,27.0,-100.00,SE,135,0.0,-999.0,97,-99.99,,,-99.99,0.000000,,2013-03-19 04:53:00,
2013-03-19 02:00:00,27.0,26.0,-100.00,SW,225,0.0,-999.0,97,-99.99,,,-99.99,0.000000,,2013-03-19 06:00:00,
2013-03-19 02:42:00,27.0,26.0,-100.00,SW,225,0.0,-999.0,97,-99.99,,,-99.99,0.000000,,2013-03-19 06:42:00,
2013-03-19 02:52:00,27.0,26.0,-100.00,SW,225,0.0,-999.0,97,-99.99,,,-99.99,0.000000,,2013-03-19 06:52:00,
2013-03-19 04:00:00,26.0,25.0,-100.00,West,270,1.0,-999.0,96,-99.99,,,-99.99,0.000000,,2013-03-19 08:00:00,
2013-03-19 04:43:00,26.0,25.0,-100.00,West,270,1.0,-999.0,96,-99.99,,,-99.99,0.000000,,2013-03-19 08:43:00,
2013-03-19 04:52:00,26.0,25.0,-100.00,West,270,1.0,-999.0,96,-99.99,,,-99.99,0.000000,,2013-03-19 08:52:00,
2013-03-19 05:00:00,26.0,25.0,-100.00,WSW,247,2.0,-999.0,96,-99.99,,,-99.99,0.000000,,2013-03-19 09:00:00,
2013-03-19 05:43:00,26.0,25.0,-100.00,WSW,247,2.0,-999.0,96,-99.99,,,-99.99,0.000000,,2013-03-19 09:43:00,
2013-03-19 05:53:00,26.0,25.0,-100.00,WSW,247,2.0,-999.0,96,-99.99,,,-99.99,0.000000,,2013-03-19 09:53:00,
2013-03-19 06:00:00,24.0,23.0,-100.00,West,270,4.0,-999.0,95,-99.99,,,-99.99,0.000000,,2013-03-19 10:00:00,
2013-03-19 06:42:00,24.0,23.0,-100.00,West,270,4.0,-999.0,95,-99.99,,,-99.99,0.000000,,2013-03-19 10:42:00,
2013-03-19 06:53:00,24.0,23.0,-100.00,West,270,4.0,-999.0,95,-99.99,,,-99.99,0.000000,,2013-03-19 10:53:00,
2013-03-19 07:00:00,21.0,20.0,-100.00,WSW,247,5.0,-999.0,95,-99.99,,,-99.99,0.000000,,2013-03-19 11:00:00,
2013-03-19 07:43:00,21.0,20.0,-100.00,WSW,247,5.0,-999.0,95,-99.99,,,-99.99,0.000000,,2013-03-19 11:43:00,
2013-03-19 07:52:00,21.0,20.0,-100.00,WSW,247,5.0,-999.0,95,-99.99,,,-99.99,0.000000,,2013-03-19 11:52:00,
2013-03-19 09:00:00,21.0,20.0,-100.00,WSW,247,6.0,-999.0,95,-99.99,,,-99.99,10.440000,,2013-03-19 13:00:00,
2013-03-19 09:42:00,21.0,20.0,-100.00,WSW,247,6.0,-999.0,95,-99.99,,,-99.99,10.440000,,2013-03-19 13:42:00,
2013-03-19 09:53:00,21.0,20.0,-100.00,WSW,247,6.0,-999.0,95,-99.99,,,-99.99,10.440000,,2013-03-19 13:53:00,
2013-03-19 10:00:00,22.0,20.0,-100.00,WSW,247,6.0,-999.0,95,-99.99,,,-99.99,44.080002,,2013-03-19 14:00:00,
2013-03-19 10:42:00,22.0,20.0,-100.00,WSW,247,6.0,-999.0,95,-99.99,,,-99.99,44.080002,,2013-03-19 14:42:00,
2013-03-19 10:52:00,22.0,20.0,-100.00,WSW,247,6.0,-999.0,95,-99.99,,,-99.99,44.080002,,2013-03-19 14:52:00,
2013-03-19 12:00:00,24.0,22.0,-100.00,WSW,247,9.0,-999.0,92,-99.99,,,-99.99,249.399994,,2013-03-19 16:00:00,
2013-03-19 12:44:00,24.0,22.0,-100.00,WSW,247,9.0,-999.0,92,-99.99,,,-99.99,249.399994,,2013-03-19 16:44:00,
2013-03-19 12:54:00,24.0,22.0,-100.00,WSW,247,9.0,-999.0,92,-99.99,,,-99.99,249.399994,,2013-03-19 16:54:00,
2013-03-19 15:00:00,26.0,22.0,-100.00,WNW,292,7.0,-999.0,85,0.09,,,-99.99,444.279999,,2013-03-19 19:00:00,
2013-03-19 15:43:00,26.0,22.0,-100.00,WNW,292,7.0,-999.0,85,0.09,,,-99.99,444.279999,,2013-03-19 19:43:00,
2013-03-19 15:53:00,26.0,22.0,-100.00,WNW,292,7.0,-999.0,85,0.09,,,-99.99,444.279999,,2013-03-19 19:53:00,
2013-03-19 16:00:00,27.0,20.0,-100.00,WNW,292,7.0,-999.0,75,0.01,,,-99.99,535.919983,,2013-03-19 20:00:00,
2013-03-19 16:43:00,27.0,20.0,-100.00,WNW,292,7.0,-999.0,75,0.01,,,-99.99,535.919983,,2013-03-19 20:43:00,
2013-03-19 16:53:00,27.0,20.0,-100.00,WNW,292,7.0,-999.0,75,0.01,,,-99.99,535.919983,,2013-03-19 20:53:00,
2013-03-19 17:00:00,26.0,18.0,-100.00,West,270,7.0,-999.0,71,-99.99,,,-99.99,329.440002,,2013-03-19 21:00:00,
2013-03-19 17:43:00,26.0,18.0,-100.00,West,270,7.0,-999.0,71,-99.99,,,-99.99,329.440002,,2013-03-19 21:43:00,
2013-03-19 17:53:00,26.0,18.0,-100.00,West,270,7.0,-999.0,71,-99.99,,,-99.99,329.440002,,2013-03-19 21:53:00,
2013-03-19 18:00:00,26.0,16.0,-100.00,West,270,7.0,-999.0,65,-99.99,,,-99.99,225.039993,,2013-03-19 22:00:00,
2013-03-19 18:44:00,26.0,16.0,-100.00,West,270,7.0,-999.0,65,-99.99,,,-99.99,225.039993,,2013-03-19 22:44:00,
2013-03-19 18:53:00,26.0,16.0,-100.00,West,270,7.0,-999.0,65,-99.99,,,-99.99,225.039993,,2013-03-19 22:53:00,
2013-03-19 20:00:00,23.0,13.0,-100.00,West,270,7.0,-999.0,65,-99.99,,,-99.99,18.559999,,2013-03-20 00:00:00,
2013-03-19 20:43:00,23.0,13.0,-100.00,West,270,7.0,-999.0,65,-99.99,,,-99.99,18.559999,,2013-03-20 00:43:00,
2013-03-19 20:52:00,23.0,13.0,-100.00,West,270,7.0,-999.0,65,-99.99,,,-99.99,18.559999,,2013-03-20 00:52:00,
2013-03-19 21:00:00,22.0,12.0,-100.00,West,270,6.0,-999.0,65,-99.99,,,-99.99,0.000000,,2013-03-20 01:00:00,
2013-03-19 21:43:00,22.0,12.0,-100.00,West,270,6.0,-999.0,65,-99.99,,,-99.99,0.000000,,2013-03-20 01:43:00,
2013-03-19 21:53:00,22.0,12.0,-100.00,West,270,6.0,-999.0,65,-99.99,,,-99.99,0.000000,,2013-03-20 01:53:00,
2013-03-19 22:00:00,21.0,12.0,-100.00,West,270,6.0,-999.0,66,-99.99,,,-99.99,0.000000,,2013-03-20 02:00:00,
2013-03-19 22:43:00,21.0,12.0,-100.00,West,270,6.0,-999.0,66,-99.99,,,-99.99,0.000000,,2013-03-20 02:43:00,
2013-03-19 22:53:00,21.0,12.0,-100.00,West,270,6.0,-999.0,66,-99.99,,,-99.99,0.000000,,2013-03-20 02:53:00,
2013-03-19 23:00:00,20.0,13.0,-100.00,West,270,5.0,-999.0,71,-99.99,,,-99.99,0.000000,,2013-03-20 03:00:00,
2013-03-19 23:43:00,20.0,13.0,-100.00,West,270,5.0,-999.0,71,-99.99,,,-99.99,0.000000,,2013-03-20 03:43:00,
2013-03-19 23:53:00,20.0,13.0,-100.00,West,270,5.0,-999.0,71,-99.99,,,-99.99,0.000000,,2013-03-20 03:53:00,